Printer-friendly version

IAU Minor Planet Center

Minor Planet Center

MPEC 2007-V115: 2007 VE189

The following Minor Planet Electronic Circular may be linked-to from your own Web pages, but must not otherwise be redistributed electronically.


Read MPEC 2007-V114 Read MPEC 2007-V116


M.P.E.C. 2007-V115                               Issued 2007 Nov. 15, 13:42 UT

     The Minor Planet Electronic Circulars contain information on unusual
         minor planets and routine data on comets.  They are published
   on behalf of Commission 20 of the International Astronomical Union by the
          Minor Planet Center, Smithsonian Astrophysical Observatory,
                          Cambridge, MA 02138, U.S.A.

             Prepared using the Tamkin Foundation Computer Network

                              MPC@CFA.HARVARD.EDU
          URL http://www.cfa.harvard.edu/iau/mpc.html  ISSN 1523-6714

                                  2007 VE189

Observations:
     K07VI9E* C2007 11 11.49286 10 02 04.63 +11 39 48.1          21.1 V EV115G96
     K07VI9E  C2007 11 11.49901 10 02 06.18 +11 39 35.1          21.8 V EV115G96
     K07VI9E  C2007 11 11.50528 10 02 07.72 +11 39 22.1          21.4 V EV115G96
     K07VI9E  C2007 11 11.51150 10 02 09.31 +11 39 09.3          21.6 V EV115G96
     K07VI9E  C2007 11 14.47398 10 14 30.98 +09 56 24.6          22.1 V EV115G96
     K07VI9E  C2007 11 14.47876 10 14 32.20 +09 56 15.6          21.7 V EV115G96
     K07VI9E  C2007 11 14.48348 10 14 33.32 +09 56 05.3          22.7 V EV115G96
     K07VI9E  C2007 11 14.48827 10 14 34.47 +09 55 55.5          22.1 V EV115G96

Observer details:
G96 Mt. Lemmon Survey.  Observers R. A. Kowalski, A. Boattini.  Measurers
    E. C. Beshore, A. Boattini, G. J. Garradd, A. R. Gibbs, A. D. Grauer,
    R. E. Hill, R. A. Kowalski, S. M. Larson, R. H. McNaught.  1.5-m reflector
    + CCD.

Orbital elements:
2007 VE189                                               Earth MOID = 0.1210 AU
Epoch 2007 Oct. 27.0 TT = JDT 2454400.5                 MPC
M 355.67065              (2000.0)            P               Q
n   0.15943767     Peri.  194.90504     -0.17224711     -0.97928056
a   3.3682844      Node   265.09886     +0.91435286     -0.11872945
e   0.6731001      Incl.    6.13565     +0.36645571     -0.16405155
P   6.18           H   20.2           G   0.15
From 8 observations 2007 Nov. 11-14.

Ephemeris:
2007 VE189               a,e,i = 3.37, 0.67, 6                   q = 1.1011
Date    TT    R. A. (2000) Decl.     Delta      r     Elong.  Phase     V
2007 11 16    10 20.71   +09 03.7    0.707    1.105    79.4    61.6    21.9
2007 11 17    10 24.71   +08 29.1    0.708    1.104    79.3    61.6    21.9
2007 11 18    10 28.66   +07 54.6    0.709    1.103    79.2    61.7    21.9
2007 11 19    10 32.57   +07 20.2    0.710    1.103    79.1    61.7    21.9
2007 11 20    10 36.43   +06 46.0    0.711    1.102    79.0    61.7    21.9
2007 11 21    10 40.24   +06 11.9    0.712    1.101    78.9    61.7    21.9
2007 11 22    10 44.00   +05 37.9    0.714    1.101    78.9    61.7    21.9
2007 11 23    10 47.72   +05 04.2    0.715    1.101    78.8    61.6    21.9
2007 11 24    10 51.39   +04 30.7    0.717    1.101    78.8    61.6    21.9
2007 11 25    10 55.02   +03 57.4    0.718    1.101    78.7    61.5    21.9
2007 11 26    10 58.60   +03 24.3    0.720    1.102    78.7    61.5    21.9
2007 11 27    11 02.13   +02 51.5    0.722    1.102    78.7    61.4    21.9
2007 11 28    11 05.62   +02 18.9    0.724    1.103    78.7    61.3    21.9
2007 11 29    11 09.07   +01 46.7    0.725    1.104    78.7    61.2    21.9
2007 11 30    11 12.47   +01 14.7    0.727    1.105    78.7    61.1    21.9
2007 12 01    11 15.83   +00 43.0    0.729    1.106    78.7    61.0    21.9
2007 12 02    11 19.14   +00 11.7    0.731    1.107    78.8    60.8    21.9
2007 12 03    11 22.41   -00 19.4    0.733    1.109    78.8    60.7    21.9
2007 12 04    11 25.64   -00 50.1    0.735    1.111    78.9    60.6    21.9
2007 12 05    11 28.82   -01 20.4    0.737    1.113    79.0    60.4    21.9
2007 12 06    11 31.96   -01 50.4    0.739    1.115    79.1    60.3    21.9

Timothy B. Spahr             (C) Copyright 2007 MPC           M.P.E.C. 2007-V115

Read MPEC 2007-V114 Read MPEC 2007-V116


Our Web policy. Index to the CBAT/MPC/ICQ pages.


Valid HTML 4.01!